CW0003 Weather Reports


Display with metric or nautical units.
time (UTC)temp
F
wind
direction
speed
MPH
gust
MPH
rain 1hr
in
rain 24hr
in
rain mn
in
humidity
%
barometer
mb
20180722065702 64 0.0 0.0 0.00 0.00 0.00 94 1017.1
20180722064156 64 0.0 0.0 0.00 0.00 0.00 94 1017.1
20180722062652 64 0.0 0.0 0.00 0.00 0.00 93 1017.2
20180722061145 64 0.0 0.0 0.00 0.00 0.00 93 1017.3
20180722055638 64 0.0 0.0 0.00 0.00 0.00 93 1017.4
20180722054135 64 0.0 0.0 0.00 0.00 0.00 93 1017.4
20180722052626 64 0.0 0.0 0.00 0.00 0.00 93 1017.4
20180722051124 64 0.0 0.0 0.00 0.00 0.00 92 1017.4
20180722045615 63 0.0 0.0 0.00 0.00 0.00 92 1017.6
20180722044113 63 0.0 0.0 0.00 0.00 0.00 91 1017.6
20180722042603 63 0.0 0.0 0.00 0.00 0.00 91 1017.7
20180722041057 63 0.0 0.0 0.00 0.00 0.00 90 1017.9
20180722035553 63 0.0 0.0 0.00 0.00 0.00 89 1018.0
20180722034052 63 0.0 0.0 0.00 0.00 0.00 89 1018.1
20180722032552 63 0.0 0.0 0.00 0.00 0.00 89 1018.2
20180722031047 64 0.0 0.0 0.00 0.00 0.00 88 1018.2
20180722025544 64 0.0 0.0 0.00 0.00 0.00 88 1018.5
20180722024042 64 0.0 0.0 0.00 0.00 0.00 87 1018.5
20180722022541 64 0.0 0.0 0.00 0.00 0.00 87 1018.8
20180722021039 64 0.0 0.0 0.00 0.00 0.00 88 1018.6
20180722015625 64 0.0 0.0 0.00 0.00 0.00 86 1018.7
20180722014124 65 0.0 0.0 0.00 0.00 0.00 84 1018.8
20180722012618 65 0.0 0.0 0.00 0.00 0.00 84 1018.8
20180722011116 66 0.0 0.0 0.00 0.00 0.00 83 1018.7
20180722005617 66 0.0 0.0 0.00 0.00 0.00 82 1018.7
20180722004112 67 0.0 0.0 0.00 0.00 0.00 81 1018.6
20180722002613 67 0.0 0.0 0.00 0.00 0.00 80 1018.7
20180722001056 68 0.0 0.0 0.00 0.00 0.00 79 1018.9
20180721235554 68 0.0 0.0 0.00 0.00 0.00 79 1018.6
20180721234050 69 89 0.0 0.0 0.00 0.00 0.00 77 1018.7
20180721232549 69 83 0.0 0.0 0.00 0.00 0.00 77 1018.6
20180721231047 70 90 0.0 0.0 0.00 0.00 0.00 77 1018.6
20180721225545 70 91 0.0 0.0 0.00 0.00 0.00 73 1018.7
20180721224044 71 123 0.0 0.0 0.00 0.00 0.00 73 1018.4
20180721222540 72 75 0.0 0.0 0.00 0.00 0.00 72 1018.3
20180721221040 73 123 0.0 0.0 0.00 0.00 0.00 75 1018.1
20180721215532 74 136 0.0 0.0 0.00 0.00 0.00 71 1017.9
20180721214027 74 74 0.0 0.0 0.00 0.00 0.00 72 1017.9
20180721212522 74 36 0.0 0.0 0.00 0.00 0.00 71 1018.1
20180721211018 75 98 0.0 0.0 0.00 0.00 0.00 68 1017.9
20180721205517 76 101 0.0 0.0 0.00 0.00 0.00 68 1017.7
20180721204015 77 107 0.0 0.0 0.00 0.00 0.00 69 1017.7
20180721202512 78 36 0.0 0.0 0.00 0.00 0.00 67 1017.5
20180721201009 77 148 0.0 0.0 0.00 0.00 0.00 68 1017.7
20180721195505 79 100 0.0 0.0 0.00 0.00 0.00 66 1017.9
20180721194010 80 73 0.0 0.0 0.00 0.00 0.00 62 1018.0
20180721192457 79 142 0.0 0.0 0.00 0.00 0.00 62 1018.4
20180721190954 80 153 0.0 0.0 0.00 0.00 0.00 63 1018.6
20180721185452 81 178 0.0 0.0 0.00 0.00 0.00 59 1018.7
20180721183950 80 58 0.0 0.0 0.00 0.00 0.00 63 1018.8
20180721182445 81 77 0.0 0.0 0.00 0.00 0.00 61 1018.9
20180721180943 82 110 0.0 0.0 0.00 0.00 0.00 69 1019.1
20180721175439 81 202 0.0 0.0 0.00 0.00 0.00 59 1019.2
20180721173939 80 131 0.0 0.0 0.00 0.00 0.00 65 1019.3
20180721172434 80 128 0.0 0.0 0.00 0.00 0.00 62 1019.2
20180721170932 80 94 0.0 0.0 0.00 0.00 0.00 61 1019.2
20180721165430 80 148 0.0 0.0 0.00 0.00 0.00 69 1019.4
20180721163924 79 108 0.0 0.0 0.00 0.00 0.00 62 1019.5
20180721162418 79 55 0.0 0.0 0.00 0.00 0.00 62 1019.5
20180721160911 79 129 0.0 0.0 0.00 0.00 0.00 57 1019.6
20180721155411 79 26 0.0 0.0 0.00 0.00 0.00 61 1019.5
20180721153901 79 144 0.0 0.0 0.00 0.00 0.00 70 1019.6
20180721152358 78 121 0.0 0.0 0.00 0.00 0.00 60 1019.5
20180721150854 78 46 0.0 0.0 0.00 0.00 0.00 65 1019.8
20180721145355 78 132 0.0 0.0 0.00 0.00 0.00 67 1019.9
20180721143851 77 137 0.0 0.0 0.00 0.00 0.00 71 1019.9
20180721142345 76 170 0.0 0.0 0.00 0.00 0.00 61 1019.9
20180721140843 76 182 0.0 0.0 0.00 0.00 0.00 70 1019.9
20180721135340 74 153 0.0 0.0 0.00 0.00 0.00 70 1019.8
20180721133834 73 184 0.0 0.0 0.00 0.00 0.00 70 1019.9
20180721132326 72 90 0.0 0.0 0.00 0.00 0.00 76 1020.0
20180721130820 71 88 0.0 0.0 0.00 0.00 0.00 80 1019.7
20180721125314 70 89 0.0 0.0 0.00 0.00 0.00 86 1019.8
20180721123906 68 89 0.0 0.0 0.00 0.00 0.00 86 1019.8
20180721122402 67 89 0.0 0.0 0.00 0.00 0.00 95 1019.8
20180721120855 63 89 0.0 0.0 0.00 0.00 0.00 96 1019.8
20180721115353 61 89 0.0 0.0 0.00 0.00 0.00 96 1019.8
20180721113854 59 89 0.0 0.0 0.00 0.00 0.00 95 1019.7
20180721112347 58 89 0.0 0.0 0.00 0.00 0.00 94 1019.7
20180721110844 58 90 0.0 0.0 0.00 0.00 0.00 93 1019.9
20180721105345 58 92 0.0 0.0 0.00 0.00 0.00 93 1019.9
20180721103841 58 0.0 0.0 0.00 0.00 0.00 92 1019.8
20180721102336 57 0.0 0.0 0.00 0.00 0.00 90 1019.7
20180721100826 57 0.0 0.0 0.00 0.00 0.00 89 1019.5
20180721095324 57 0.0 0.0 0.00 0.00 0.00 88 1019.6
20180721093817 57 0.0 0.0 0.00 0.00 0.00 89 1019.6
20180721092309 57 0.0 0.0 0.00 0.00 0.00 89 1019.6
20180721090803 57 0.0 0.0 0.00 0.00 0.00 90 1019.6
20180721085257 58 0.0 0.0 0.00 0.00 0.00 90 1019.8
20180721083752 58 0.0 0.0 0.00 0.00 0.00 90 1019.5
20180721082248 58 0.0 0.0 0.00 0.00 0.00 90 1019.5
20180721080739 58 0.0 0.0 0.00 0.00 0.00 90 1019.5
20180721075237 58 0.0 0.0 0.00 0.00 0.00 89 1019.3
20180721073728 58 0.0 0.0 0.00 0.00 0.00 89 1019.4
20180721072221 58 0.0 0.0 0.00 0.00 0.00 89 1019.3
20180721070718 59 0.0 0.0 0.00 0.00 0.00 89 1019.4